GW7195 Weather Reports


time (UTC)temp
C
wind
direction
speed
KPH
gust
KPH
rain 1hr
cm
rain 24hr
cm
rain mn
cm
humidity
%
barometer
mb
20260505062401 2 190 0.0 0.0 0.00 0.00 0.00 99 817.9
20260505061858 2 201 1.6 1.6 0.00 0.00 0.00 99 817.9
20260505061356 2 176 8.0 9.7 0.00 0.00 0.00 99 817.9
20260505060853 2 163 4.8 4.8 0.00 0.00 0.00 99 817.9
20260505060350 2 192 0.0 0.0 0.00 0.00 0.00 99 817.9
20260505055846 2 192 0.0 0.0 0.00 0.05 0.05 99 817.9
20260505055342 2 192 4.8 4.8 0.00 0.05 0.05 99 818.2
20260505054840 2 193 0.0 1.6 0.00 0.05 0.05 99 818.2
20260505054337 2 166 4.8 8.0 0.00 0.05 0.05 99 818.2
20260505053835 2 187 1.6 3.2 0.00 0.05 0.05 99 818.2
20260505053332 2 186 3.2 3.2 0.00 0.05 0.05 99 818.5
20260505052828 2 157 4.8 4.8 0.00 0.05 0.05 99 817.9
20260505052325 2 189 1.6 1.6 0.00 0.05 0.05 99 818.2
20260505051822 2 168 3.2 3.2 0.00 0.05 0.05 99 818.5
20260505051320 1 186 0.0 0.0 0.00 0.05 0.05 99 818.2
20260505050818 2 189 0.0 0.0 0.00 0.05 0.05 99 818.2
20260505050316 2 183 0.0 0.0 0.00 0.05 0.05 99 818.5
20260505041746 2 201 0.0 0.0 0.00 0.05 0.05 99 819.0
20260505041243 2 201 0.0 0.0 0.00 0.05 0.05 99 818.5
20260505040740 2 195 0.0 0.0 0.00 0.05 0.05 99 819.0
20260505040238 2 191 1.6 1.6 0.00 0.05 0.05 99 819.0
20260505035735 2 189 1.6 1.6 0.03 0.05 0.05 99 819.0
20260505035230 2 196 0.0 0.0 0.03 0.05 0.05 99 818.5
20260505034727 2 185 1.6 3.2 0.03 0.05 0.05 99 819.0
20260505034224 3 181 3.2 3.2 0.03 0.05 0.05 99 818.5
20260505033721 3 192 0.0 0.0 0.03 0.05 0.05 99 818.5
20260505033219 3 201 1.6 1.6 0.00 0.03 0.03 99 818.2
20260505032717 3 192 1.6 1.6 0.00 0.03 0.03 99 818.5
20260505032212 3 208 0.0 0.0 0.00 0.03 0.03 98 818.5
20260505031710 3 208 0.0 0.0 0.00 0.03 0.03 98 818.2
20260505031206 2 208 0.0 0.0 0.00 0.03 0.03 97 818.2
20260505030703 2 220 3.2 3.2 0.00 0.03 0.03 97 817.9
20260505030159 3 216 1.6 3.2 0.00 0.03 0.03 97 817.9
20260505025655 3 214 1.6 1.6 0.03 0.03 0.03 96 818.2
20260505025153 3 214 1.6 3.2 0.03 0.03 0.03 96 818.2
20260505024651 3 197 0.0 0.0 0.03 0.03 0.03 95 818.2
20260505024148 3 193 0.0 0.0 0.00 0.00 0.00 95 818.2
20260505023645 3 181 1.6 1.6 0.00 0.00 0.00 95 818.2
20260505023143 3 174 3.2 3.2 0.00 0.00 0.00 94 817.9
20260505022640 3 167 4.8 4.8 0.00 0.00 0.00 93 817.9
20260505022137 3 172 1.6 1.6 0.00 0.00 0.00 93 817.9
20260505021633 3 110 1.6 4.8 0.00 0.00 0.00 94 817.9
20260505021130 3 76 3.2 3.2 0.00 0.00 0.00 94 817.9
20260505020626 3 70 0.0 1.6 0.00 0.00 0.00 95 817.9
20260505020122 3 56 3.2 4.8 0.00 0.00 0.00 95 817.9
20260505015619 3 191 1.6 3.2 0.00 0.00 0.00 96 817.9
20260505015116 3 122 1.6 1.6 0.00 0.00 0.00 96 817.5
20260505014612 3 177 0.0 1.6 0.00 0.00 0.00 96 817.9
20260505014110 4 176 4.8 4.8 0.00 0.00 0.00 96 817.5
20260505013607 4 180 1.6 3.2 0.00 0.00 0.00 97 817.5
20260505013104 4 190 0.0 1.6 0.00 0.00 0.00 98 817.5
20260505012602 4 194 0.0 0.0 0.00 0.00 0.00 98 817.5
20260505012059 5 190 0.0 0.0 0.00 0.00 0.00 98 817.5
20260505011554 4 190 0.0 0.0 0.00 0.00 0.00 98 817.9
20260505011052 4 184 1.6 1.6 0.00 0.00 0.00 97 817.5
20260505010547 5 189 0.0 0.0 0.00 0.00 0.00 98 817.5
20260505010044 4 179 3.2 4.8 0.00 0.00 0.00 97 817.9
20260505005540 5 187 1.6 1.6 0.00 0.00 0.00 97 817.5
20260505005038 5 190 1.6 1.6 0.00 0.00 0.00 97 817.5
20260505004535 5 203 0.0 0.0 0.00 0.00 0.00 96 817.5
20260505004031 5 205 0.0 0.0 0.00 0.00 0.00 95 817.5
20260505003529 5 204 0.0 1.6 0.00 0.00 0.00 96 817.5
20260505003026 4 208 1.6 1.6 0.00 0.00 0.00 95 817.5
20260505002526 4 195 1.6 1.6 0.00 0.00 0.00 95 817.9
20260505002026 4 195 0.0 1.6 0.00 0.00 0.00 95 817.9
20260505001523 4 181 4.8 9.7 0.00 0.00 0.00 92 817.9
20260505001020 5 174 11.3 16.1 0.00 0.00 0.00 89 817.9
20260505000517 5 153 9.7 11.3 0.00 0.00 0.00 85 818.2
20260505000015 6 101 11.3 12.9 0.00 0.00 0.00 81 818.2
20260504235511 6 179 9.7 12.9 0.00 0.00 0.00 77 817.9
20260504235007 7 197 1.6 1.6 0.00 0.00 0.00 72 817.9
20260504234505 7 280 4.8 4.8 0.00 0.00 0.00 68 817.9
20260504234002 7 128 11.3 14.5 0.00 0.00 0.00 68 817.5
20260504233457 7 183 8.0 11.3 0.00 0.00 0.00 69 817.1
20260504232954 6 222 6.4 9.7 0.00 0.00 0.00 68 817.1
20260504232451 6 144 9.7 14.5 0.00 0.00 0.00 71 816.7
20260504231949 6 204 3.2 3.2 0.00 0.00 0.00 72 816.7
20260504231445 6 204 3.2 4.8 0.00 0.00 0.00 73 816.7
20260504230941 6 212 6.4 9.7 0.00 0.00 0.00 71 816.7
20260504230438 7 248 4.8 9.7 0.00 0.00 0.00 71 816.7
20260504225937 7 234 6.4 9.7 0.00 0.00 0.00 67 816.7
20260504225433 7 259 9.7 12.9 0.00 0.00 0.00 67 816.4
20260504224930 7 245 6.4 14.5 0.00 0.00 0.00 64 816.4
20260504224427 8 258 12.9 22.5 0.00 0.00 0.00 61 816.4
20260504223924 9 215 9.7 14.5 0.00 0.00 0.00 57 816.0
20260504223420 11 241 9.7 12.9 0.00 0.00 0.00 49 816.4
20260504222916 11 211 3.2 3.2 0.00 0.00 0.00 48 816.4
20260504222413 11 190 4.8 8.0 0.00 0.00 0.00 49 816.4
20260504221911 11 255 8.0 9.7 0.00 0.00 0.00 48 816.4
20260504221408 11 202 4.8 4.8 0.00 0.00 0.00 49 816.4
20260504220905 11 256 8.0 11.3 0.00 0.00 0.00 49 816.4
20260504220401 11 198 1.6 3.2 0.00 0.00 0.00 49 816.0
20260504215859 11 249 6.4 8.0 0.00 0.00 0.00 48 816.4
20260504215355 11 258 8.0 12.9 0.00 0.00 0.00 47 816.0
20260504214851 12 288 12.9 14.5 0.00 0.00 0.00 46 816.0
20260504214348 12 202 1.6 1.6 0.00 0.00 0.00 43 816.4
20260504213845 12 204 0.0 1.6 0.00 0.00 0.00 43 816.4
20260504213341 12 180 3.2 3.2 0.00 0.00 0.00 43 816.4
20260504212838 12 211 1.6 1.6 0.00 0.00 0.00 43 816.4
20260504212334 12 314 3.2 4.8 0.00 0.00 0.00 42 816.4
20260504211832 12 332 4.8 4.8 0.00 0.00 0.00 44 816.4
20260504211328 13 328 9.7 12.9 0.00 0.00 0.00 43 816.4
20260504210826 13 338 4.8 8.0 0.00 0.00 0.00 45 816.4
20260504210322 12 217 8.0 9.7 0.00 0.00 0.00 47 816.4
20260504205820 12 282 8.0 9.7 0.00 0.00 0.00 47 816.4
20260504205317 12 197 9.7 11.3 0.00 0.00 0.00 47 816.7
20260504204815 11 275 11.3 20.9 0.00 0.00 0.00 50 816.7
20260504204313 11 209 11.3 16.1 0.00 0.00 0.00 52 816.7
20260504203813 11 242 8.0 11.3 0.00 0.00 0.00 53 817.1
20260504203309 10 236 6.4 9.7 0.00 0.00 0.00 55 817.1
20260504202804 10 179 6.4 8.0 0.00 0.00 0.00 55 816.7
20260504202304 10 239 16.1 24.1 0.00 0.00 0.00 55 817.1
20260504201758 10 248 8.0 12.9 0.00 0.00 0.00 59 817.1
20260504201256 9 221 6.4 8.0 0.00 0.00 0.00 62 816.7
20260504200753 10 256 9.7 12.9 0.00 0.00 0.00 56 817.1
20260504200249 10 271 8.0 12.9 0.00 0.00 0.00 54 817.1
20260504195746 10 215 3.2 4.8 0.00 0.00 0.00 53 817.1
20260504195241 11 251 6.4 9.7 0.00 0.00 0.00 49 817.5
20260504194739 10 263 11.3 14.5 0.00 0.00 0.00 49 817.1
20260504194235 11 202 4.8 8.0 0.00 0.00 0.00 49 817.1
20260504193731 11 229 9.7 12.9 0.00 0.00 0.00 49 817.1
20260504193229 12 259 8.0 9.7 0.00 0.00 0.00 47 817.1
20260504192727 12 246 9.7 12.9 0.00 0.00 0.00 46 817.1
20260504192225 13 213 14.5 16.1 0.00 0.00 0.00 45 817.1
20260504191724 11 211 4.8 4.8 0.00 0.00 0.00 44 817.1
20260504191220 11 330 14.5 17.7 0.00 0.00 0.00 46 817.1
20260504190715 12 213 9.7 11.3 0.00 0.00 0.00 44 817.5
20260504190212 12 186 4.8 8.0 0.00 0.00 0.00 41 817.1
20260504185709 13 202 4.8 4.8 0.00 0.00 0.00 39 817.1
20260504185205 14 216 1.6 3.2 0.00 0.00 0.00 32 817.1
20260504184701 17 152 4.8 8.0 0.00 0.00 0.00 28 816.7
20260504184156 16 207 4.8 4.8 0.00 0.00 0.00 28 817.1
20260504183653 17 211 3.2 3.2 0.00 0.00 0.00 27 817.1
20260504183151 15 211 3.2 3.2 0.00 0.00 0.00 30 817.1
20260504182648 15 95 4.8 4.8 0.00 0.00 0.00 30 817.1
20260504182146 13 95 4.8 8.0 0.00 0.00 0.00 34 817.5
20260504181643 12 331 6.4 9.7 0.00 0.00 0.00 36 817.5
20260504181141 13 23 9.7 12.9 0.00 0.00 0.00 35 817.1
20260504180640 13 210 1.6 1.6 0.00 0.00 0.00 35 817.5
20260504180138 13 144 4.8 4.8 0.00 0.00 0.00 36 817.5
20260504175635 13 84 8.0 14.5 0.00 0.00 0.00 35 817.9
20260504175131 15 240 6.4 9.7 0.00 0.00 0.00 36 817.5
20260504174630 14 126 4.8 8.0 0.00 0.00 0.00 33 817.5
20260504174125 14 125 6.4 9.7 0.00 0.00 0.00 34 817.5
20260504173623 13 174 8.0 11.3 0.00 0.00 0.00 35 817.5
20260504173121 15 196 4.8 4.8 0.00 0.00 0.00 32 817.9
20260504172616 16 185 4.8 8.0 0.00 0.00 0.00 32 817.5
20260504172114 15 95 4.8 4.8 0.00 0.00 0.00 31 817.9
20260504171610 16 47 12.9 24.1 0.00 0.00 0.00 32 817.5
20260504171107 15 77 8.0 9.7 0.00 0.00 0.00 33 817.9
20260504170603 15 128 6.4 8.0 0.00 0.00 0.00 34 817.9
20260504150946 10 168 1.6 3.2 0.00 0.00 0.00 44 819.0
20260504150443 10 136 6.4 12.9 0.00 0.00 0.00 44 819.0
20260504140910 8 130 1.6 3.2 0.00 0.00 0.00 42 819.0
20260504140406 8 175 3.2 4.8 0.00 0.00 0.00 43 819.0
20260504130331 6 188 1.6 1.6 0.00 0.00 0.00 51 819.0
20260504120254 3 201 0.0 0.0 0.00 0.00 0.00 59 818.5
20260504110218 2 201 1.6 1.6 0.00 0.00 0.00 61 819.0
20260504100142 2 203 0.0 0.0 0.00 0.00 0.00 60 819.0
20260504090104 4 201 1.6 3.2 0.00 0.00 0.00 54 819.3
20260504081535 3 203 1.6 1.6 0.00 0.00 0.00 55 819.3
20260504081030 3 197 1.6 1.6 0.00 0.00 0.00 57 819.7
20260504080527 4 198 1.6 1.6 0.00 0.00 0.00 56 819.3